Погода Максимкин Яр

Погода Максимкин Яр : погода сейчас, прогноз погоды и архив. Всё, что Вы хотите узнать о погоде Максимкин Яр!

Поиск расширенной информации на нашем сайте:

Другие новости

Новости СМИ2

Главная страница сайта

Новости сайта

02.10.2013

Напоминаем, что на нашем новом сайте вы можете получить высокодетализированные прогнозы погоды по пунктам России, СНГ и мира (включающие важные для авиации метеовеличины, такие как направление и скорость ветра, видимость, явления погоды, количество и форма облачности, нижняя и верхняя граница облачности), а также ознакомиться с разнообразными материалами по авиационной метеорологии и подборкой полезных ссылок на эту тему.

Сайт Метеоцентр.Азия посвящён разработке технологий оптимизации авиаметеорологического обслуживания, включая проектирование и перспективное создание нескольких автоматизированных авиаметеорологических систем:
- система выпуска высокодетальных прогностических карт явлений погоды для нижнего воздушного пространства по России и ближнему зарубежью;
- система верификации прогнозов TAF (выпускаемых синоптиками официальных АМСГ РФ и ближнего зарубежья) и AUTOTAF (выпускаемых сайтом Метеоцентр.Азия) - выявление ошибок, онлайн-сопоставление с фактической погодой METAR, автоматическое внесение коррективов в прогнозы при резком отклонении фактической погоды от прогноза, подсчёт оправдываемости прогнозов по элементам и в целом;
- система обработки, анализа и отображения авиаметеорологической информации для применения провайдерами метеорологической информации.

Рекомендуем: Clash of Clans коды и прохождения Clash.

Погода Максимкин Яр - сегодня

Время (UTC), дата Ветер
(°,м/с) 
Видим.   Явления Облачность Т
(°С)
Тd
(°С)
f(%) Тe
(°С)
Pmin
(гПа)
dP
(гПа)
Po
(мм)
O2
(г/м3)
Тmin Tmax R s Состояние
почвы
18 22.02.17 210 (ЮЗ) 4000 м  слаб. ливневой снег  10/10 600 м кучево-дожд. 
[Cb cap]
-2 -3.9 87 -4  1016.7  0.8  753  306           
21 22.02.17 210 (ЮЗ) 4000 м  слаб. ливневой снег  10/10 600 м кучево-дожд. 
[Cb cap]
-2.8 -4.6 87 -5  1017.3  0.6  753  307           
00 23.02.17 210 (ЮЗ) 4000 м  слаб. ливневой снег  10/10 600 м кучево-дожд. 
[Cb cap]
-3.2 -4.8 89 -5  1018  0.6  754  308  -3.2    0.9  81  равномерный
мокрый или
старый снег
100% 
03 23.02.17 210 (ЮЗ) 4000 м  слаб. ливневой снег  10/10 600 м кучево-дожд. 
[Cb cap]
-2.9 -4.8 87 -5  1019.5  1.5  755  308           
06 23.02.17 210 (ЮЗ) 20000 м  {ливн. осадки}  10/10 600 м кучево-дожд. 
[Cb cap]
-2.3 -4.6 84 -4  1020.3  0.8  755  307           
09 23.02.17 210 (ЮЗ) 20000 м    10/10 600 м 
[Sc]
-1.7 -4.6 81 -3  1021.5  1.2  756  307           
12 23.02.17 180 (Ю) 20000 м    10/9 600 м средняя 
[Sc|As op]
-1.9 -4.4 83 -1  1022.5  757  308    -1.6  0.0     
15 23.02.17 170 (Ю) 20000 м    3/3 600 м 
[Sc]
-4.1 -5.8 88 -4  1022.7  0.1  757  310           
18 23.02.17 180 (Ю) 20000 м    ясно 
-4.5 -6.8 84 -6  1022.7  757  311           
21 23.02.17 200 (Ю) 20000 м    ясно 
-3.9 -7.3 77 -5  1022.8  0.1  757  310           
00 24.02.17 190 (Ю) 20000 м    ясно 
-6 -9.5 76 -7  1023.7  0.8  758  313  -6      81  равномерный
сухой снег
100% 
03 24.02.17 200 (Ю) 20000 м    10/3 600 м верхняя 
[Sc|Ci]
-5.7 -10.9 67 -7  1024.6  0.8  758  313  -7.1         
06 24.02.17 220 (ЮЗ) 20000 м    8/0 верхняя 
[Ci sp]
-1.5 -10.7 49 -3  1024.7  0.4  759  308           
09 24.02.17 230 (ЮЗ) 20000 м    4/0 верхняя 
[Ci sp]
+2 -10.2 40 +1  1023.7  -0.8  758  304           
12 24.02.17 170 (Ю) 20000 м    8/0 верхняя 
[Ci sp]
-2.5 -9 61 -2  1023.2  -0.7  757  309    +2.4       
15 24.02.17 180 (Ю) 20000 м    ясно 
-4.1 -8.9 69 -4  1022.6  -0.7  757  311           
18 24.02.17 140 (ЮВ) 20000 м    ясно 
-9.9 -11.1 91 -10  1022.1  -0.8  756  317           
21 24.02.17 тихо ()   20000 м    ясно 
-12.5 -13.5 92 -13  1021.7  -0.5  756  320           
00 25.02.17 140 (ЮВ) 20000 м    3/0 верхняя 
[Ci sp]
-14.5 -15.8 90 -15  1021.6  -0.2  756  323  -14.7      81  равномерный
сухой снег
100% 
03 25.02.17 тихо ()   20000 м    10/0 верхняя 
[Ci fib]
-11.4 -13.4 85 -11  1021.6  0.1  756  319  -15.7         
06 25.02.17 250 (З) 20000 м    10/0 верхняя 
[Ci fib]
-3.6 -10.8 57 -3  1021.2  756  310           
09 25.02.17 240 (ЮЗ) 20000 м    10/0 верхняя 
[Ci fib]
-0.8 -10.1 49 -2  1021.1  0.1  756  306           
12 25.02.17 070 (В) 20000 м    10/0 средняя, верхняя 
[As op|Cs]
-3.8 -10.5 60 -3  1021.4  0.1  756  310    -0.4       
15 25.02.17 тихо ()   20000 м    3/0 верхняя 
[Ci sp]
-8.3 -11.3 79 -8  1021.6  756  315           
18 25.02.17 020 (С) 20000 м    3/0 верхняя 
[Ci sp]
-11.4 -12.9 89 -11  1021.9  0.1  756  319           
Время (UTC), дата Ветер
(°,м/с) 
Видим.   Явления Облачность Т
(°С)
Тd
(°С)
f(%) Тe
(°С)
Pmin
(гПа)
dP
(гПа)
Po
(мм)
O2
(г/м3)
Тmin Tmax R s Состояние
почвы

Для получения пояснительной информации подведите курсор к названию столбца.

ПОГОДА Максимкин Яр - архив

Всё, что Вы хотите узнать о погоде Максимкин Яр - удобно и подробно!

Выберите нужную дату (начиная с 1 января 2015* года) и нажмите кнопку "Найти".
Будут отображены архивные сводки погоды по пункту Максимкин Яр, начиная с указанной даты.


Отображать данные в формате CSV (для использования в таблицах Excel)


Внимание! Наш архив погоды предназначен исключительно для личного некоммерческого использования в познавательных целях. Если Вам необходимы официальные справки о состоянии погоды (для производственных, юридических, коммерческих и т.п. целей), обращайтесь в органы Росгидромета.

*Примечание: данная дата относится к архиву по метеостанциям СССР (Россия, СНГ, Балтия).
Архив по метеостанциям Зарубежной Европы и Азии (кроме Китая) хранится 10 дней, по другим регионам земного шара (Китай, Африка, Америка, Австралия, Океания) - 1 день.

Максимкин Яр - район местоположения метеостанции


Название, широта, долгота, высота метеостанции:
Максимкин Яр 58.6°ш. 86.7°д. 105 м над ур. моря [Российская Федерация]

Дополнительная информация

В oтличие oт бoльшинства пoгoдных сайтoв мы публикуем пoдрoбную метеoинфoрмацию в детальнoм прoфессиoнальнoм фoрмате.

Характеристики температуры и влажнoсти вoздуха измеряются на высoте 2 м в тени вдали oт зданий и деревьев.
Скoрoсть ветра измеряется на высoте 10 м (на урoвне рoста челoвека скoрoсть ветра ниже в 1.5-2 раза). Если метеoстанция нахoдится в гoрoде или в лесу, тo скoрoсть ветра занижена на 2-4 м/с пo сравнению с oткрытым местoм. Скoрoсть ветра над акватoриями крупных рек и oзёр, а также на вершинах хoлмoв на 2-5 м/с выше, чем в oбычных услoвиях.
Атмoсфернoе давление в разных тoчках местнoсти мoжет значительнo oтличаться oт давления на метеoстанции, в зависимoсти oт услoвий рельефа (при пoдъёме на 10 м давление пoнижается примернo на 1 мм рт.ст.).